Columbus, NE

10:42 AM CDT on August 28, 2016 (GMT -0500)
Columbus Municipal

Weather History for KOLU - March, 2013

Change the Weather History Date:

Monday, March 4, 2013

  Actual Average Record
Temperature  
Mean Temperature 34 °F -  
Max Temperature 42 °F 41 °F 74 °F (1987)
Min Temperature 26 °F 22 °F -11 °F (1978)
Degree Days  
Heating Degree Days 31    
Moisture  
Dew Point 24 °F    
Average Humidity 70    
Maximum Humidity 86    
Minimum Humidity 48    
Precipitation  
Precipitation 0.00 in - - ()
Sea Level Pressure  
Sea Level Pressure 29.80 in    
Wind  
Wind Speed 10 mph (NNE)    
Max Wind Speed 26 mph    
Max Gust Speed 38 mph    
Visibility 10 miles    
Events      
Averages and records for this station are not official NWS values.
T = Trace of Precipitation, MM = Missing Value Source: NWS Daily Summary

Daily Weather History Graph

Daily Weather History Graph

Search for Another Location

Airport or City:

Trip Planner

Search our weather history database for the weather conditions in past years. The results will help you decide how hot, cold, wet, or windy it might be!

Date:

Astronomy

Mar. 04, 2013 Rise Set
Actual Time 6:58 AM CST 6:23 PM CST
Civil Twilight 6:31 AM CST 6:51 PM CST
Nautical Twilight 5:59 AM CST 7:23 PM CST
Astronomical Twilight 5:26 AM CST 7:55 PM CST
Moon 1:12 AM CST (3/4) 11:03 AM CST (3/4)
Length of Visible Light 12h 20m
Length of Day
11h 25m
Waning Gibbous, 52% of the Moon is Illuminated
Mar 4
Waning Gibbous
Mar 4
Last Quarter
Mar 11
New
Mar 19
First Quarter
Mar 27
Full

Hourly Weather History & Observations

Time (CST) Temp. Windchill Dew Point Humidity Pressure Visibility Wind Dir Wind Speed Gust Speed Precip Events Conditions
12:15 AM 32.0 °F 24.8 °F 24.8 °F 75% 29.66 in 8.0 mi ESE 8.1 mph - N/A   Clear
12:35 AM 32.0 °F 24.8 °F 24.8 °F 75% 29.66 in 10.0 mi ESE 8.1 mph - N/A   Clear
12:55 AM 32.0 °F 24.8 °F 24.8 °F 75% 29.65 in 9.0 mi SE 8.1 mph - N/A   Clear
1:15 AM 32.0 °F 24.2 °F 24.8 °F 75% 29.65 in 10.0 mi SE 9.2 mph - N/A   Clear
1:55 AM 30.2 °F 22.6 °F 24.8 °F 80% 29.64 in 10.0 mi SE 8.1 mph - N/A   Clear
2:15 AM 30.2 °F 21.3 °F 24.8 °F 80% 29.62 in 10.0 mi SE 10.4 mph - N/A   Clear
2:35 AM 30.2 °F 22.6 °F 24.8 °F 80% 29.62 in 10.0 mi ESE 8.1 mph - N/A   Clear
2:55 AM 30.2 °F 23.4 °F 24.8 °F 80% 29.63 in 10.0 mi ENE 6.9 mph - N/A   Clear
3:15 AM 28.4 °F 24.6 °F 23.0 °F 80% 29.64 in 10.0 mi NE 3.5 mph - N/A   Clear
3:35 AM 28.4 °F 22.2 °F 21.2 °F 74% 29.62 in 10.0 mi ESE 5.8 mph - N/A   Clear
3:55 AM 30.2 °F 23.4 °F 23.0 °F 75% 29.62 in 10.0 mi ESE 6.9 mph - N/A   Clear
4:15 AM 28.4 °F 23.3 °F 23.0 °F 80% 29.64 in 10.0 mi ENE 4.6 mph - N/A   Clear
4:35 AM 28.4 °F 23.3 °F 23.0 °F 80% 29.63 in 10.0 mi East 4.6 mph - N/A   Clear
4:55 AM 28.4 °F 24.6 °F 21.2 °F 74% 29.64 in 10.0 mi East 3.5 mph - N/A   Clear
5:15 AM 26.6 °F 21.2 °F 21.2 °F 80% 29.64 in 10.0 mi East 4.6 mph - N/A   Clear
5:55 AM 26.6 °F 21.2 °F 21.2 °F 80% 29.66 in 10.0 mi NE 4.6 mph - N/A   Clear
6:15 AM 26.6 °F - 21.2 °F 80% 29.66 in 10.0 mi Calm Calm - N/A   Clear
6:35 AM 26.6 °F 21.2 °F 21.2 °F 80% 29.66 in 10.0 mi NE 4.6 mph - N/A   Clear
6:55 AM 26.6 °F - 21.2 °F 80% 29.67 in 8.0 mi Calm Calm - N/A   Mostly Cloudy
7:15 AM 28.4 °F 24.6 °F 23.0 °F 80% 29.68 in 8.0 mi NE 3.5 mph - N/A   Overcast
7:35 AM 28.4 °F 24.6 °F 24.8 °F 86% 29.69 in 9.0 mi ENE 3.5 mph - N/A   Overcast
7:55 AM 30.2 °F 26.7 °F 24.8 °F 80% 29.70 in 9.0 mi NE 3.5 mph - N/A   Overcast
8:15 AM 30.2 °F 26.7 °F 24.8 °F 80% 29.71 in 9.0 mi NE 3.5 mph - N/A   Overcast
8:35 AM 30.2 °F - 24.8 °F 80% 29.72 in 10.0 mi Calm Calm - N/A   Overcast
8:55 AM 30.2 °F 26.7 °F 24.8 °F 80% 29.72 in 10.0 mi NNE 3.5 mph - N/A   Overcast
9:15 AM 32.0 °F 26.4 °F 24.8 °F 75% 29.73 in 10.0 mi North 5.8 mph - N/A   Overcast
9:35 AM 32.0 °F 25.6 °F 24.8 °F 75% 29.73 in 10.0 mi NNW 6.9 mph - N/A   Overcast
9:55 AM 32.0 °F 25.6 °F 24.8 °F 75% 29.74 in 10.0 mi NW 6.9 mph - N/A   Overcast
10:15 AM 33.8 °F 24.8 °F 26.6 °F 75% 29.76 in 9.0 mi NW 12.7 mph - N/A   Overcast
10:35 AM 33.8 °F 24.3 °F 26.6 °F 75% 29.76 in 8.0 mi NNW 13.8 mph - N/A   Overcast
10:55 AM 33.8 °F 23.9 °F 26.6 °F 75% 29.77 in 7.0 mi NNW 15.0 mph - N/A   Overcast
11:15 AM 35.6 °F 25.9 °F 28.4 °F 75% 29.78 in 7.0 mi NNW 16.1 mph 23.0 mph N/A   Overcast
11:35 AM 37.4 °F 28.5 °F 30.2 °F 75% 29.78 in 7.0 mi NNW 15.0 mph 21.9 mph N/A   Overcast
11:55 AM 35.6 °F 25.9 °F 28.4 °F 75% 29.79 in 7.0 mi North 16.1 mph 20.7 mph N/A   Overcast
12:15 PM 35.6 °F 25.5 °F 28.4 °F 75% 29.79 in 7.0 mi NNW 17.3 mph 20.7 mph N/A   Overcast
12:55 PM 37.4 °F 28.2 °F 30.2 °F 75% 29.79 in 7.0 mi North 16.1 mph - N/A   Overcast
1:15 PM 37.4 °F 26.4 °F 30.2 °F 75% 29.78 in 8.0 mi North 23.0 mph 26.5 mph N/A   Overcast
1:35 PM 37.4 °F 26.9 °F 30.2 °F 75% 29.78 in 9.0 mi North 20.7 mph 28.8 mph N/A   Overcast
1:55 PM 37.4 °F 26.9 °F 30.2 °F 75% 29.78 in 10.0 mi North 20.7 mph 27.6 mph N/A   Overcast
2:15 PM 39.2 °F 30.2 °F 32.0 °F 75% 29.78 in 10.0 mi NNE 17.3 mph 23.0 mph N/A   Overcast
2:35 PM 41.0 °F 31.6 °F 30.2 °F 65% 29.77 in 10.0 mi NNE 20.7 mph 26.5 mph N/A   Overcast
2:55 PM 42.8 °F 34.0 °F 30.2 °F 61% 29.78 in 10.0 mi North 20.7 mph 26.5 mph N/A   Mostly Cloudy
3:15 PM 42.8 °F 34.0 °F 28.4 °F 57% 29.80 in 10.0 mi North 20.7 mph 26.5 mph N/A   Clear
3:35 PM 42.8 °F 34.8 °F 26.6 °F 53% 29.80 in 10.0 mi North 17.3 mph 26.5 mph N/A   Clear
3:55 PM 42.8 °F 34.3 °F 26.6 °F 53% 29.81 in 10.0 mi North 19.6 mph 25.3 mph N/A   Partly Cloudy
4:15 PM 41.0 °F 33.5 °F 26.6 °F 57% 29.84 in 10.0 mi North 13.8 mph - N/A   Scattered Clouds
4:35 PM 39.2 °F 31.2 °F 26.6 °F 61% 29.85 in 10.0 mi North 13.8 mph 17.3 mph N/A   Mostly Cloudy
4:55 PM 39.2 °F 31.2 °F 26.6 °F 61% 29.87 in 10.0 mi North 13.8 mph 18.4 mph N/A   Mostly Cloudy
5:15 PM 37.4 °F 30.3 °F 26.6 °F 65% 29.88 in 10.0 mi NNE 10.4 mph - N/A   Overcast
5:35 PM 37.4 °F 30.8 °F 26.6 °F 65% 29.88 in 10.0 mi NNE 9.2 mph - N/A   Overcast
5:55 PM 37.4 °F 31.4 °F 26.6 °F 65% 29.89 in 10.0 mi North 8.1 mph - N/A   Overcast
6:15 PM 35.6 °F 30.7 °F 26.6 °F 70% 29.92 in 10.0 mi North 5.8 mph - N/A   Overcast
6:35 PM 35.6 °F 31.7 °F 26.6 °F 70% 29.94 in 10.0 mi ENE 4.6 mph - N/A   Overcast
6:55 PM 35.6 °F - 26.6 °F 70% 29.96 in 10.0 mi Calm Calm - N/A   Overcast
7:15 PM 35.6 °F 32.8 °F 26.6 °F 70% 29.96 in 10.0 mi ESE 3.5 mph - N/A   Overcast
7:35 PM 35.6 °F - 26.6 °F 70% 29.97 in 10.0 mi Calm Calm - N/A   Overcast
7:55 PM 33.8 °F - 26.6 °F 75% 29.97 in 10.0 mi Calm Calm - N/A   Overcast
8:35 PM 33.8 °F 28.6 °F 26.6 °F 75% 29.99 in 10.0 mi NW 5.8 mph - N/A   Overcast
8:55 PM 35.6 °F 24.2 °F 21.2 °F 56% 30.01 in 10.0 mi NW 21.9 mph 35.7 mph N/A   Mostly Cloudy
9:15 PM 35.6 °F 24.5 °F 19.4 °F 52% 30.02 in 10.0 mi NNW 20.7 mph 27.6 mph N/A   Overcast
9:35 PM 33.8 °F 21.0 °F 17.6 °F 52% 30.02 in 10.0 mi NW 25.3 mph 31.1 mph N/A   Overcast
9:55 PM 33.8 °F 21.6 °F 15.8 °F 48% 30.03 in 10.0 mi NW 23.0 mph 31.1 mph N/A   Overcast
10:15 PM 32.0 °F 18.4 °F 14.0 °F 48% 30.04 in 10.0 mi NNW 26.5 mph 38.0 mph N/A   Overcast
10:35 PM 30.2 °F 16.5 °F 14.0 °F 51% 30.05 in 10.0 mi NW 24.2 mph 29.9 mph N/A   Overcast
10:55 PM 30.2 °F 17.1 °F 14.0 °F 51% 30.05 in 10.0 mi NW 21.9 mph 28.8 mph N/A   Overcast
11:15 PM 30.2 °F 16.2 °F 14.0 °F 51% 30.05 in 10.0 mi NW 25.3 mph 31.1 mph N/A   Overcast
11:35 PM 28.4 °F 13.5 °F 12.2 °F 51% 30.05 in 10.0 mi WNW 26.5 mph 35.7 mph N/A   Mostly Cloudy
11:55 PM 26.6 °F 13.1 °F 14.0 °F 59% 30.05 in 10.0 mi NW 19.6 mph 28.8 mph N/A   Clear